Regional Weather Roundup
Issued by NWS Northern Indiana

Home | Current Version | Previous Version | Graphics & Text | Print | Product List | Glossary On
Versions: 1 2 3 4 5 6 7 8 9 10 11 12 13 14 15 16 17 18 19 20 21 22 23 24 25 26 27 28 29 30 31 32 33 34 35 36 37 38 39 40 41 42 43 44 45 46 47 48 49 50
000
ASUS43 KIWX 220100
RWRIWX

KIWX WEATHER ROUNDUP
NATIONAL WEATHER SERVICE NORTHERN INDIANA
800 PM EST SUN DEC 21 2014

NOTE: "FAIR" INDICATES FEW OR NO CLOUDS BELOW 12,000 FEET WITH NO
SIGNIFICANT WEATHER AND/OR OBSTRUCTIONS TO VISIBILITY.

* THESE STATIONS ARE NOT UNDER NWS QUALITY CONTROL. THEY ALSO MAY NOT
  REPORT WEATHER SUCH AS PRECIPITATION OR FOG.

INZ001>027-220200-
NORTHERN INDIANA

CITY           SKY/WX    TMP DP  RH WIND       PRES   REMARKS
GARY*          CLOUDY    37  27  65 SE12      30.11S
KNOX*          PTCLDY    32  26  76 SE9       30.12S WCI  25
SOUTH BEND     NOT AVBL
GOSHEN         PTCLDY    32  26  78 SE10      30.14S WCI  24
MONTICELLO*    PTCLDY    32  28  86 SE3       30.11F
ANGOLA*        CLEAR     28  25  86 SE8       30.16S WCI  20
FORT WAYNE     PTCLDY    28  24  85 E7        30.17S WCI  21
PERU/GRISSOM   CLEAR     31  31 100 SE9       30.12S WCI  23

$$
INZ028>050-220200-
CENTRAL INDIANA

CITY           SKY/WX    TMP DP  RH WIND       PRES   REMARKS
LAFAYETTE      CLEAR     28  25  88 E6        30.11F WCI  22
KOKOMO*        CLEAR     30  25  80 SE7       30.13S WCI  23
MUNCIE*        PTCLDY    31  26  82 SE5       30.14F WCI  26
INDIANAPOLIS   MOCLDY    30  26  85 E8        30.11S WCI  22

$$
MIZ043>046-050>051-056>058-064>065-071>073-077>080-220200-
SOUTHWEST LOWER MICHIGAN

CITY           SKY/WX    TMP DP  RH WIND       PRES   REMARKS
BATTLE CREEK   PTCLDY    31  24  75 SE7       30.16S WCI  24
BENTON HARBOR  PTCLDY    31  26  82 SE9       30.12S WCI  23
COLDWATER*     PTCLDY    30  26  84 MISG      30.16S
HILLSDALE*     PTCLDY    30  27  90 SE7       30.16F FOG     WCI  23
HOLLAND        PTCLDY    34  26  72 SE13      30.13S WCI  25
GRAND RAPIDS   PTCLDY    30  24  78 SE9       30.15S WCI  22
KALAMAZOO      PTCLDY    31  24  75 SE8       30.15S WCI  23
STURGIS*       PTCLDY    30  27  86 SE10      30.14F WCI  21
THREE RIVERS*  FAIR      31  26  81 SE8       30.15S WCI  24

$$
OHZ001>008-015>018-024>025-220200-
NORTHWEST OHIO

CITY           SKY/WX    TMP DP  RH WIND       PRES   REMARKS
DEFIANCE       CLEAR     29  24  82 E5        30.20S WCI  24
FINDLAY        CLEAR     30  24  78 E7        30.18F WCI  23
TOLEDO EXPRESS PTCLDY    26  23  88 CALM      30.21F
TOLEDO METCALF PTCLDY    28  22  78 E3        30.23S
LIMA           PTCLDY    31  25  78 E7        30.17F HAZE    WCI  24

$$
AND FOR LAKE MICHIGAN COASTAL AND OPEN LAKE BUOY OBSERVATIONS

STATION/POSITION TEMP    WIND        PRES    VSBY  WAVE
                 AIR SEA DIR/SP/G                  HT/PER
                 (F)     (DEG/KT/KT) (MB)    (MI)  (FT/S)
CALUMET HARBOR    36     140/  5/  8 1018.1S
SAINT JOSEPH      33     140/  2/  7 1020.3F

$$
&&



USA.gov is the U.S. government's official web portal to all federal, state and local government web resources and services.